Time,TemperatureF,DewpointF,PressureIn,WindDirection,WindDirectionDegrees,WindSpeedMPH,WindSpeedGustMPH,Humidity,HourlyPrecipIn,Conditions,Clouds,dailyrainin,SoftwareType,DateUTC
2013-05-20 00:01:00,32.7,14.7,31.05,WSW,244,0.0,1.0,47,0.00,,,0.00,LWC V2.10 B1813,2013-05-20 08:01:00,
2013-05-20 00:06:00,32.6,15.6,31.05,North,0,1.0,2.0,49,0.00,,,0.00,LWC V2.10 B1813,2013-05-20 08:06:00,
2013-05-20 00:11:00,32.7,14.2,31.05,WSW,241,0.0,2.0,46,0.00,,,0.00,LWC V2.10 B1813,2013-05-20 08:11:00,
2013-05-20 00:16:00,32.8,14.3,31.05,WSW,240,0.0,1.0,46,0.00,,,0.00,LWC V2.10 B1813,2013-05-20 08:16:00,
2013-05-20 00:21:00,32.8,13.8,31.05,WSW,241,1.0,1.0,45,0.00,,,0.00,LWC V2.10 B1813,2013-05-20 08:21:00,
2013-05-20 00:26:00,32.8,13.8,31.05,SW,234,1.0,3.0,45,0.00,,,0.00,LWC V2.10 B1813,2013-05-20 08:26:00,
2013-05-20 00:31:00,32.8,13.8,31.06,SW,226,2.0,3.0,45,0.00,,,0.00,LWC V2.10 B1813,2013-05-20 08:31:00,
2013-05-20 00:36:00,32.8,13.8,31.06,SW,226,0.0,2.0,45,0.00,,,0.00,LWC V2.10 B1813,2013-05-20 08:36:00,
2013-05-20 00:41:00,32.9,13.9,31.06,SSW,207,0.0,2.0,45,0.00,,,0.00,LWC V2.10 B1813,2013-05-20 08:41:00,
2013-05-20 00:46:00,33.0,14.0,31.06,SSW,206,3.0,4.0,45,0.00,,,0.00,LWC V2.10 B1813,2013-05-20 08:46:00,
2013-05-20 00:51:00,33.1,14.1,31.06,SSW,194,3.0,3.0,45,0.00,,,0.00,LWC V2.10 B1813,2013-05-20 08:51:00,
2013-05-20 00:56:00,33.2,16.1,31.07,SSW,193,1.0,1.0,49,0.00,,,0.00,LWC V2.10 B1813,2013-05-20 08:56:00,
2013-05-20 01:01:00,32.9,14.9,31.06,ESE,107,1.0,3.0,47,0.00,,,0.00,LWC V2.10 B1813,2013-05-20 09:01:00,
2013-05-20 01:06:00,32.8,15.8,31.06,South,171,1.0,2.0,49,0.00,,,0.00,LWC V2.10 B1813,2013-05-20 09:06:00,
2013-05-20 01:11:00,32.6,14.6,31.06,South,171,2.0,3.0,47,0.00,,,0.00,LWC V2.10 B1813,2013-05-20 09:11:00,
2013-05-20 01:16:00,32.6,14.1,31.06,South,171,2.0,3.0,46,0.00,,,0.00,LWC V2.10 B1813,2013-05-20 09:16:00,
2013-05-20 01:21:00,32.8,14.3,31.07,SE,146,2.0,2.0,46,0.00,,,0.00,LWC V2.10 B1813,2013-05-20 09:21:00,
2013-05-20 01:26:00,32.9,15.4,31.07,SE,142,1.0,3.0,48,0.00,,,0.00,LWC V2.10 B1813,2013-05-20 09:26:00,
2013-05-20 01:31:00,33.0,14.5,31.07,SE,143,1.0,3.0,46,0.00,,,0.00,LWC V2.10 B1813,2013-05-20 09:31:00,
2013-05-20 01:36:00,32.9,15.9,31.07,ESE,105,2.0,4.0,49,0.00,,,0.00,LWC V2.10 B1813,2013-05-20 09:36:00,
2013-05-20 01:41:00,32.8,15.8,31.07,ENE,78,4.0,5.0,49,0.00,,,0.00,LWC V2.10 B1813,2013-05-20 09:41:00,
2013-05-20 01:46:00,32.8,15.3,31.07,ENE,74,3.0,3.0,48,0.00,,,0.00,LWC V2.10 B1813,2013-05-20 09:46:00,
2013-05-20 01:51:00,32.8,15.8,31.07,ENE,75,2.0,3.0,49,0.00,,,0.00,LWC V2.10 B1813,2013-05-20 09:51:00,
2013-05-20 01:56:00,32.6,15.6,31.07,ESE,111,4.0,5.0,49,0.00,,,0.00,LWC V2.10 B1813,2013-05-20 09:56:00,
2013-05-20 02:01:00,32.5,15.0,31.07,East,94,3.0,6.0,48,0.00,,,0.00,LWC V2.10 B1813,2013-05-20 10:01:00,
2013-05-20 02:06:00,32.4,14.9,31.07,East,89,5.0,5.0,48,0.00,,,0.00,LWC V2.10 B1813,2013-05-20 10:06:00,
2013-05-20 02:11:00,32.5,16.0,31.07,East,84,2.0,5.0,50,0.00,,,0.00,LWC V2.10 B1813,2013-05-20 10:11:00,
2013-05-20 02:16:00,32.5,15.5,31.07,SE,127,4.0,5.0,49,0.00,,,0.00,LWC V2.10 B1813,2013-05-20 10:16:00,
2013-05-20 02:21:00,32.5,15.5,31.08,ESE,114,1.0,3.0,49,0.00,,,0.00,LWC V2.10 B1813,2013-05-20 10:21:00,
2013-05-20 02:26:00,32.5,14.5,31.08,ESE,115,1.0,3.0,47,0.00,,,0.00,LWC V2.10 B1813,2013-05-20 10:26:00,
2013-05-20 02:31:00,32.3,14.4,31.08,ESE,115,0.0,1.0,47,0.00,,,0.00,LWC V2.10 B1813,2013-05-20 10:31:00,
2013-05-20 02:36:00,32.1,14.6,31.08,ESE,115,2.0,3.0,48,0.00,,,0.00,LWC V2.10 B1813,2013-05-20 10:36:00,
2013-05-20 02:41:00,31.8,15.3,31.08,ESE,115,1.0,2.0,50,0.00,,,0.00,LWC V2.10 B1813,2013-05-20 10:41:00,
2013-05-20 02:46:00,31.6,14.7,31.08,ESE,115,1.0,2.0,49,0.00,,,0.00,LWC V2.10 B1813,2013-05-20 10:46:00,
2013-05-20 02:51:00,31.4,14.9,31.08,ESE,115,1.0,2.0,50,0.00,,,0.00,LWC V2.10 B1813,2013-05-20 10:51:00,
2013-05-20 02:56:00,31.2,14.3,31.08,ESE,115,0.0,0.0,49,0.00,,,0.00,LWC V2.10 B1813,2013-05-20 10:56:00,
2013-05-20 03:01:00,31.2,13.8,31.08,ESE,115,0.0,1.0,48,0.00,,,0.00,LWC V2.10 B1813,2013-05-20 11:01:00,
2013-05-20 03:06:00,31.1,16.0,31.08,ESE,115,3.0,3.0,53,0.00,,,0.00,LWC V2.10 B1813,2013-05-20 11:06:00,
2013-05-20 03:11:00,31.1,14.7,31.08,ESE,115,1.0,3.0,50,0.00,,,0.00,LWC V2.10 B1813,2013-05-20 11:11:00,
2013-05-20 03:16:00,31.4,15.4,31.08,ESE,115,1.0,3.0,51,0.00,,,0.00,LWC V2.10 B1813,2013-05-20 11:16:00,
2013-05-20 03:21:00,31.4,14.5,31.09,ESE,116,1.0,2.0,49,0.00,,,0.00,LWC V2.10 B1813,2013-05-20 11:21:00,
2013-05-20 03:26:00,31.4,14.9,31.09,ESE,115,3.0,3.0,50,0.00,,,0.00,LWC V2.10 B1813,2013-05-20 11:26:00,
2013-05-20 03:31:00,31.4,14.9,31.09,East,101,2.0,3.0,50,0.00,,,0.00,LWC V2.10 B1813,2013-05-20 11:31:00,
2013-05-20 03:36:00,31.4,14.5,31.09,East,100,0.0,1.0,49,0.00,,,0.00,LWC V2.10 B1813,2013-05-20 11:36:00,
2013-05-20 03:41:00,31.2,14.8,31.09,East,82,3.0,5.0,50,0.00,,,0.00,LWC V2.10 B1813,2013-05-20 11:41:00,
2013-05-20 03:46:00,31.2,15.2,31.09,ENE,64,4.0,5.0,51,0.00,,,0.00,LWC V2.10 B1813,2013-05-20 11:46:00,
2013-05-20 03:51:00,31.4,14.9,31.09,ENE,67,4.0,5.0,50,0.00,,,0.00,LWC V2.10 B1813,2013-05-20 11:51:00,
2013-05-20 03:56:00,31.3,14.8,31.09,ENE,67,4.0,4.0,50,0.00,,,0.00,LWC V2.10 B1813,2013-05-20 11:56:00,
2013-05-20 04:01:00,31.3,15.7,31.09,ENE,73,3.0,4.0,52,0.00,,,0.00,LWC V2.10 B1813,2013-05-20 12:01:00,
2013-05-20 04:06:00,31.2,14.8,31.09,ENE,78,3.0,4.0,50,0.00,,,0.00,LWC V2.10 B1813,2013-05-20 12:06:00,
2013-05-20 04:11:00,31.0,15.5,31.09,East,88,5.0,6.0,52,0.00,,,0.00,LWC V2.10 B1813,2013-05-20 12:11:00,
2013-05-20 04:16:00,30.8,14.8,31.09,ENE,78,3.0,5.0,51,0.00,,,0.00,LWC V2.10 B1813,2013-05-20 12:16:00,
2013-05-20 04:21:00,31.0,14.6,31.09,East,83,3.0,5.0,50,0.00,,,0.00,LWC V2.10 B1813,2013-05-20 12:21:00,
2013-05-20 04:26:00,31.0,15.5,31.09,ENE,74,4.0,5.0,52,0.00,,,0.00,LWC V2.10 B1813,2013-05-20 12:26:00,
2013-05-20 04:31:00,30.9,15.4,31.09,ENE,69,3.0,5.0,52,0.00,,,0.00,LWC V2.10 B1813,2013-05-20 12:31:00,
2013-05-20 04:36:00,30.8,14.8,31.09,East,81,2.0,5.0,51,0.00,,,0.00,LWC V2.10 B1813,2013-05-20 12:36:00,
2013-05-20 04:41:00,30.6,14.6,31.09,East,94,5.0,5.0,51,0.00,,,0.00,LWC V2.10 B1813,2013-05-20 12:41:00,
2013-05-20 04:46:00,30.0,15.0,31.09,East,83,3.0,6.0,53,0.00,,,0.00,LWC V2.10 B1813,2013-05-20 12:46:00,
2013-05-20 04:51:00,29.9,14.9,31.09,ENE,63,3.0,5.0,53,0.00,,,0.00,LWC V2.10 B1813,2013-05-20 12:51:00,
2013-05-20 04:56:00,30.0,15.0,31.09,East,82,5.0,6.0,53,0.00,,,0.00,LWC V2.10 B1813,2013-05-20 12:56:00,
2013-05-20 05:01:00,30.1,15.1,31.09,ENE,75,2.0,4.0,53,0.00,,,0.00,LWC V2.10 B1813,2013-05-20 13:01:00,
2013-05-20 05:06:00,30.0,15.0,31.10,East,83,1.0,3.0,53,0.00,,,0.00,LWC V2.10 B1813,2013-05-20 13:06:00,
2013-05-20 05:11:00,29.8,14.8,31.09,East,82,1.0,2.0,53,0.00,,,0.00,LWC V2.10 B1813,2013-05-20 13:11:00,
2013-05-20 05:16:00,29.8,16.4,31.10,East,83,0.0,0.0,57,0.00,,,0.00,LWC V2.10 B1813,2013-05-20 13:16:00,
2013-05-20 05:21:00,29.6,15.0,31.10,East,85,0.0,1.0,54,0.00,,,0.00,LWC V2.10 B1813,2013-05-20 13:21:00,
2013-05-20 05:26:00,29.5,15.3,31.09,East,83,0.0,1.0,55,0.00,,,0.00,LWC V2.10 B1813,2013-05-20 13:26:00,
2013-05-20 05:31:00,29.4,15.7,31.09,East,83,1.0,2.0,56,0.00,,,0.00,LWC V2.10 B1813,2013-05-20 13:31:00,
2013-05-20 05:36:00,29.3,15.2,31.10,East,83,2.0,2.0,55,0.00,,,0.00,LWC V2.10 B1813,2013-05-20 13:36:00,
2013-05-20 05:41:00,29.4,15.3,31.10,East,83,1.0,2.0,55,0.00,,,0.00,LWC V2.10 B1813,2013-05-20 13:41:00,
2013-05-20 05:46:00,29.7,15.5,31.10,East,83,0.0,2.0,55,0.00,,,0.00,LWC V2.10 B1813,2013-05-20 13:46:00,
2013-05-20 05:51:00,30.0,15.0,31.10,East,83,0.0,1.0,53,0.00,,,0.00,LWC V2.10 B1813,2013-05-20 13:51:00,
2013-05-20 05:56:00,30.2,15.2,31.10,East,83,1.0,3.0,53,0.00,,,0.00,LWC V2.10 B1813,2013-05-20 13:56:00,
2013-05-20 06:01:00,30.1,15.5,31.10,East,83,0.0,1.0,54,0.00,,,0.00,LWC V2.10 B1813,2013-05-20 14:01:00,
2013-05-20 06:06:00,30.1,15.5,31.10,East,83,0.0,1.0,54,0.00,,,0.00,LWC V2.10 B1813,2013-05-20 14:06:00,
2013-05-20 06:11:00,30.3,15.7,31.09,East,84,0.0,2.0,54,0.00,,,0.00,LWC V2.10 B1813,2013-05-20 14:11:00,
2013-05-20 06:16:00,30.6,15.5,31.09,East,91,2.0,3.0,53,0.00,,,0.00,LWC V2.10 B1813,2013-05-20 14:16:00,
2013-05-20 06:21:00,30.7,15.2,31.09,East,91,2.0,2.0,52,0.00,,,0.00,LWC V2.10 B1813,2013-05-20 14:21:00,
2013-05-20 06:26:00,30.8,15.7,31.09,East,91,1.0,2.0,53,0.00,,,0.00,LWC V2.10 B1813,2013-05-20 14:26:00,
2013-05-20 06:31:00,31.2,15.6,31.09,East,90,0.0,1.0,52,0.00,,,0.00,LWC V2.10 B1813,2013-05-20 14:31:00,
2013-05-20 06:36:00,31.4,15.4,31.09,East,91,0.0,2.0,51,0.00,,,0.00,LWC V2.10 B1813,2013-05-20 14:36:00,
2013-05-20 06:41:00,31.7,16.1,31.09,East,91,0.0,1.0,52,0.00,,,0.00,LWC V2.10 B1813,2013-05-20 14:41:00,
2013-05-20 06:46:00,32.3,16.2,31.09,East,91,2.0,2.0,51,0.00,,,0.00,LWC V2.10 B1813,2013-05-20 14:46:00,
2013-05-20 06:51:00,32.7,16.6,31.09,East,91,0.0,2.0,51,0.00,,,0.00,LWC V2.10 B1813,2013-05-20 14:51:00,
2013-05-20 06:56:00,33.1,17.0,31.10,East,91,0.0,0.0,51,0.00,,,0.00,LWC V2.10 B1813,2013-05-20 14:56:00,
2013-05-20 07:01:00,33.5,16.4,31.09,East,92,3.0,3.0,49,0.00,,,0.00,LWC V2.10 B1813,2013-05-20 15:01:00,
2013-05-20 07:06:00,33.6,17.0,31.10,East,92,5.0,5.0,50,0.00,,,0.00,LWC V2.10 B1813,2013-05-20 15:06:00,
2013-05-20 07:11:00,33.2,15.2,31.09,ESE,107,2.0,4.0,47,0.00,,,0.00,LWC V2.10 B1813,2013-05-20 15:11:00,
2013-05-20 07:16:00,33.2,15.7,31.09,ESE,107,2.0,4.0,48,0.00,,,0.00,LWC V2.10 B1813,2013-05-20 15:16:00,
2013-05-20 07:21:00,33.3,15.8,31.09,East,83,0.0,5.0,48,0.00,,,0.00,LWC V2.10 B1813,2013-05-20 15:21:00,
2013-05-20 07:26:00,33.5,16.4,31.10,East,85,3.0,3.0,49,0.00,,,0.00,LWC V2.10 B1813,2013-05-20 15:26:00,
2013-05-20 07:31:00,33.7,16.1,31.10,East,84,1.0,3.0,48,0.00,,,0.00,LWC V2.10 B1813,2013-05-20 15:31:00,
2013-05-20 07:36:00,34.3,16.2,31.09,ENE,65,2.0,4.0,47,0.00,,,0.00,LWC V2.10 B1813,2013-05-20 15:36:00,
2013-05-20 07:41:00,34.4,16.3,31.10,East,98,3.0,3.0,47,0.00,,,0.00,LWC V2.10 B1813,2013-05-20 15:41:00,
2013-05-20 07:46:00,34.4,16.3,31.10,East,100,2.0,5.0,47,0.00,,,0.00,LWC V2.10 B1813,2013-05-20 15:46:00,
2013-05-20 07:51:00,34.5,16.9,31.10,ENE,62,3.0,5.0,48,0.00,,,0.00,LWC V2.10 B1813,2013-05-20 15:51:00,
2013-05-20 07:56:00,34.4,15.8,31.10,ESE,115,7.0,7.0,46,0.00,,,0.00,LWC V2.10 B1813,2013-05-20 15:56:00,
2013-05-20 08:01:00,34.3,16.2,31.10,East,96,3.0,7.0,47,0.00,,,0.00,LWC V2.10 B1813,2013-05-20 16:01:00,
2013-05-20 08:06:00,34.4,15.8,31.10,ESE,112,3.0,7.0,46,0.00,,,0.00,LWC V2.10 B1813,2013-05-20 16:06:00,
2013-05-20 08:11:00,34.4,16.3,31.10,East,98,5.0,5.0,47,0.00,,,0.00,LWC V2.10 B1813,2013-05-20 16:11:00,
2013-05-20 08:16:00,34.4,15.8,31.10,ESE,102,4.0,6.0,46,0.00,,,0.00,LWC V2.10 B1813,2013-05-20 16:16:00,
2013-05-20 08:21:00,34.7,16.6,31.10,ENE,76,3.0,4.0,47,0.00,,,0.00,LWC V2.10 B1813,2013-05-20 16:21:00,
2013-05-20 08:26:00,35.1,16.4,31.09,ENE,65,1.0,5.0,46,0.00,,,0.00,LWC V2.10 B1813,2013-05-20 16:26:00,
2013-05-20 08:31:00,35.5,16.3,31.09,East,86,2.0,5.0,45,0.00,,,0.00,LWC V2.10 B1813,2013-05-20 16:31:00,
2013-05-20 08:36:00,35.9,16.7,31.09,ENE,71,3.0,4.0,45,0.00,,,0.00,LWC V2.10 B1813,2013-05-20 16:36:00,
2013-05-20 08:41:00,36.1,17.8,31.10,ESE,120,2.0,5.0,47,0.00,,,0.00,LWC V2.10 B1813,2013-05-20 16:41:00,
2013-05-20 08:46:00,36.6,17.3,31.09,ESE,119,4.0,7.0,45,0.00,,,0.00,LWC V2.10 B1813,2013-05-20 16:46:00,
2013-05-20 08:51:00,36.8,17.5,31.09,SE,133,5.0,6.0,45,0.00,,,0.00,LWC V2.10 B1813,2013-05-20 16:51:00,
2013-05-20 08:56:00,37.0,17.1,31.09,East,101,0.0,2.0,44,0.00,,,0.00,LWC V2.10 B1813,2013-05-20 16:56:00,
2013-05-20 09:01:00,37.4,17.0,31.09,ESE,121,1.0,3.0,43,0.00,,,0.00,LWC V2.10 B1813,2013-05-20 17:01:00,
2013-05-20 09:06:00,37.6,17.7,31.09,ESE,117,3.0,5.0,44,0.00,,,0.00,LWC V2.10 B1813,2013-05-20 17:06:00,
2013-05-20 09:11:00,37.9,17.4,31.09,ESE,113,7.0,7.0,43,0.00,,,0.00,LWC V2.10 B1813,2013-05-20 17:11:00,
2013-05-20 09:16:00,37.8,16.8,31.09,East,82,3.0,7.0,42,0.00,,,0.00,LWC V2.10 B1813,2013-05-20 17:16:00,
2013-05-20 09:19:00,38.0,18.0,31.09,ENE,74,3.0,8.0,44,0.00,,,0.00,LWC V2.10 B1813,2013-05-20 17:19:00,
2013-05-20 09:20:00,38.1,17.6,31.09,ENE,74,1.0,8.0,43,0.00,,,0.00,LWC V2.10 B1813,2013-05-20 17:20:00,
2013-05-20 09:25:00,38.5,17.4,31.09,SE,145,4.0,5.0,42,0.00,,,0.00,LWC V2.10 B1813,2013-05-20 17:25:00,
2013-05-20 09:30:00,38.6,17.0,31.09,East,98,3.0,6.0,41,0.00,,,0.00,LWC V2.10 B1813,2013-05-20 17:30:00,
2013-05-20 09:35:00,38.8,17.1,31.09,East,83,0.0,6.0,41,0.00,,,0.00,LWC V2.10 B1813,2013-05-20 17:35:00,
2013-05-20 09:40:00,39.2,17.5,31.09,SE,136,3.0,4.0,41,0.00,,,0.00,LWC V2.10 B1813,2013-05-20 17:40:00,
2013-05-20 09:45:00,39.4,18.2,31.09,SE,135,7.0,9.0,42,0.00,,,0.00,LWC V2.10 B1813,2013-05-20 17:45:00,
2013-05-20 09:50:00,39.3,17.6,31.08,SE,132,2.0,6.0,41,0.00,,,0.00,LWC V2.10 B1813,2013-05-20 17:50:00,
2013-05-20 09:55:00,39.7,18.5,31.08,East,79,6.0,6.0,42,0.00,,,0.00,LWC V2.10 B1813,2013-05-20 17:55:00,
2013-05-20 10:00:00,40.0,17.1,31.08,SE,145,3.0,7.0,39,0.00,,,0.00,LWC V2.10 B1813,2013-05-20 18:00:00,
2013-05-20 10:05:00,40.3,17.9,31.08,South,169,3.0,10.0,40,0.00,,,0.00,LWC V2.10 B1813,2013-05-20 18:05:00,
2013-05-20 10:10:00,40.8,17.2,31.08,SSE,150,0.0,5.0,38,0.00,,,0.00,LWC V2.10 B1813,2013-05-20 18:10:00,
2013-05-20 10:15:00,41.4,18.3,31.08,SSE,150,5.0,5.0,39,0.00,,,0.00,LWC V2.10 B1813,2013-05-20 18:15:00,
2013-05-20 10:20:00,41.8,16.8,31.08,SE,132,5.0,8.0,36,0.00,,,0.00,LWC V2.10 B1813,2013-05-20 18:20:00,
2013-05-20 10:25:00,41.3,16.4,31.08,SE,140,1.0,4.0,36,0.00,,,0.00,LWC V2.10 B1813,2013-05-20 18:25:00,
2013-05-20 10:30:00,41.3,17.0,31.08,SE,130,3.0,7.0,37,0.00,,,0.00,LWC V2.10 B1813,2013-05-20 18:30:00,
2013-05-20 10:35:00,41.4,17.7,31.08,East,96,7.0,8.0,38,0.00,,,0.00,LWC V2.10 B1813,2013-05-20 18:35:00,
2013-05-20 10:40:00,41.7,17.4,31.08,South,176,4.0,8.0,37,0.00,,,0.00,LWC V2.10 B1813,2013-05-20 18:40:00,
2013-05-20 10:45:00,42.2,16.5,31.07,SSE,162,2.0,7.0,35,0.00,,,0.00,LWC V2.10 B1813,2013-05-20 18:45:00,
2013-05-20 10:50:00,42.1,17.1,31.07,ESE,109,3.0,6.0,36,0.00,,,0.00,LWC V2.10 B1813,2013-05-20 18:50:00,
2013-05-20 10:55:00,42.1,17.1,31.07,SSE,148,3.0,9.0,36,0.00,,,0.00,LWC V2.10 B1813,2013-05-20 18:55:00,
2013-05-20 11:00:00,41.9,18.2,31.07,SSE,153,3.0,8.0,38,0.00,,,0.00,LWC V2.10 B1813,2013-05-20 19:00:00,
2013-05-20 11:05:00,42.2,17.2,31.07,SE,138,7.0,10.0,36,0.00,,,0.00,LWC V2.10 B1813,2013-05-20 19:05:00,
2013-05-20 11:10:00,42.0,17.0,31.07,ESE,106,5.0,7.0,36,0.00,,,0.00,LWC V2.10 B1813,2013-05-20 19:10:00,
2013-05-20 11:15:00,42.2,17.8,31.07,SE,140,6.0,9.0,37,0.00,,,0.00,LWC V2.10 B1813,2013-05-20 19:15:00,
2013-05-20 11:20:00,42.1,17.7,31.07,East,80,1.0,5.0,37,0.00,,,0.00,LWC V2.10 B1813,2013-05-20 19:20:00,
2013-05-20 11:25:00,42.3,17.3,31.07,ESE,118,5.0,10.0,36,0.00,,,0.00,LWC V2.10 B1813,2013-05-20 19:25:00,
2013-05-20 11:30:00,42.4,17.4,31.07,East,96,7.0,10.0,36,0.00,,,0.00,LWC V2.10 B1813,2013-05-20 19:30:00,
2013-05-20 11:35:00,42.6,18.2,31.06,ESE,123,9.0,9.0,37,0.00,,,0.00,LWC V2.10 B1813,2013-05-20 19:35:00,
2013-05-20 11:40:00,42.9,19.1,31.06,SE,129,6.0,8.0,38,0.00,,,0.00,LWC V2.10 B1813,2013-05-20 19:40:00,
2013-05-20 11:45:00,43.7,18.5,31.06,East,88,2.0,9.0,36,0.00,,,0.00,LWC V2.10 B1813,2013-05-20 19:45:00,
2013-05-20 11:50:00,43.8,18.0,31.06,East,90,5.0,11.0,35,0.00,,,0.00,LWC V2.10 B1813,2013-05-20 19:50:00,
2013-05-20 11:55:00,43.4,17.6,31.06,SE,137,4.0,12.0,35,0.00,,,0.00,LWC V2.10 B1813,2013-05-20 19:55:00,
2013-05-20 12:00:00,43.7,18.5,31.06,ESE,119,4.0,11.0,36,0.00,,,0.00,LWC V2.10 B1813,2013-05-20 20:00:00,
2013-05-20 12:05:00,43.6,17.8,31.06,SE,139,8.0,13.0,35,0.00,,,0.00,LWC V2.10 B1813,2013-05-20 20:05:00,
2013-05-20 12:10:00,43.7,17.9,31.06,ESE,115,7.0,9.0,35,0.00,,,0.00,LWC V2.10 B1813,2013-05-20 20:10:00,
2013-05-20 12:15:00,44.4,19.8,31.05,South,182,4.0,7.0,37,0.00,,,0.00,LWC V2.10 B1813,2013-05-20 20:15:00,
2013-05-20 12:20:00,45.0,19.0,31.05,SE,128,8.0,12.0,35,0.00,,,0.00,LWC V2.10 B1813,2013-05-20 20:20:00,
2013-05-20 12:25:00,44.7,20.7,31.05,South,173,4.0,12.0,38,0.00,,,0.00,LWC V2.10 B1813,2013-05-20 20:25:00,
2013-05-20 12:30:00,44.7,19.4,31.05,SSE,159,4.0,10.0,36,0.00,,,0.00,LWC V2.10 B1813,2013-05-20 20:30:00,
2013-05-20 12:35:00,44.4,19.1,31.05,ESE,107,7.0,7.0,36,0.00,,,0.00,LWC V2.10 B1813,2013-05-20 20:35:00,
2013-05-20 12:40:00,44.6,19.3,31.04,SE,127,3.0,10.0,36,0.00,,,0.00,LWC V2.10 B1813,2013-05-20 20:40:00,
2013-05-20 12:45:00,45.3,19.3,31.04,SSE,168,2.0,7.0,35,0.00,,,0.00,LWC V2.10 B1813,2013-05-20 20:45:00,
2013-05-20 12:50:00,45.7,20.9,31.04,SSE,148,3.0,5.0,37,0.00,,,0.00,LWC V2.10 B1813,2013-05-20 20:50:00,
2013-05-20 12:55:00,46.3,20.2,31.04,East,84,5.0,8.0,35,0.00,,,0.00,LWC V2.10 B1813,2013-05-20 20:55:00,
2013-05-20 13:00:00,46.0,19.9,31.04,SSE,153,3.0,7.0,35,0.00,,,0.00,LWC V2.10 B1813,2013-05-20 21:00:00,
2013-05-20 13:05:00,46.2,20.1,31.03,East,94,2.0,7.0,35,0.00,,,0.00,LWC V2.10 B1813,2013-05-20 21:05:00,
2013-05-20 13:10:00,46.0,19.9,31.03,East,101,6.0,14.0,35,0.00,,,0.00,LWC V2.10 B1813,2013-05-20 21:10:00,
2013-05-20 13:15:00,45.8,19.0,31.03,ENE,71,7.0,9.0,34,0.00,,,0.00,LWC V2.10 B1813,2013-05-20 21:15:00,
2013-05-20 13:20:00,45.8,19.7,31.03,South,173,3.0,4.0,35,0.00,,,0.00,LWC V2.10 B1813,2013-05-20 21:20:00,
2013-05-20 13:25:00,46.5,21.6,31.03,SSW,198,4.0,4.0,37,0.00,,,0.00,LWC V2.10 B1813,2013-05-20 21:25:00,
2013-05-20 13:30:00,47.3,19.7,31.03,ESE,119,9.0,10.0,33,0.00,,,0.00,LWC V2.10 B1813,2013-05-20 21:30:00,
2013-05-20 13:35:00,47.2,20.3,31.03,ESE,107,9.0,9.0,34,0.00,,,0.00,LWC V2.10 B1813,2013-05-20 21:35:00,
2013-05-20 13:40:00,46.4,19.6,31.03,SSE,153,8.0,11.0,34,0.00,,,0.00,LWC V2.10 B1813,2013-05-20 21:40:00,
2013-05-20 13:45:00,46.4,20.3,31.03,SSE,148,4.0,12.0,35,0.00,,,0.00,LWC V2.10 B1813,2013-05-20 21:45:00,
2013-05-20 13:50:00,47.0,20.1,31.02,SE,141,13.0,13.0,34,0.00,,,0.00,LWC V2.10 B1813,2013-05-20 21:50:00,
2013-05-20 13:55:00,46.9,19.3,31.02,ESE,121,5.0,7.0,33,0.00,,,0.00,LWC V2.10 B1813,2013-05-20 21:55:00,
2013-05-20 14:00:00,46.7,21.2,31.02,East,81,5.0,8.0,36,0.00,,,0.00,LWC V2.10 B1813,2013-05-20 22:00:00,
2013-05-20 14:05:00,46.7,19.8,31.02,East,92,5.0,9.0,34,0.00,,,0.00,LWC V2.10 B1813,2013-05-20 22:05:00,
2013-05-20 14:10:00,46.5,18.3,31.02,NE,53,5.0,11.0,32,0.00,,,0.00,LWC V2.10 B1813,2013-05-20 22:10:00,
2013-05-20 14:15:00,46.8,18.5,31.01,SSE,159,5.0,11.0,32,0.00,,,0.00,LWC V2.10 B1813,2013-05-20 22:15:00,
2013-05-20 14:20:00,47.1,22.2,31.01,ESE,122,10.0,10.0,37,0.00,,,0.00,LWC V2.10 B1813,2013-05-20 22:20:00,
2013-05-20 14:25:00,47.0,18.7,31.01,SE,138,6.0,9.0,32,0.00,,,0.00,LWC V2.10 B1813,2013-05-20 22:25:00,
2013-05-20 14:30:00,46.9,18.6,31.01,ESE,122,2.0,3.0,32,0.00,,,0.00,LWC V2.10 B1813,2013-05-20 22:30:00,
2013-05-20 14:35:00,47.4,20.5,31.01,ESE,108,9.0,11.0,34,0.00,,,0.00,LWC V2.10 B1813,2013-05-20 22:35:00,
2013-05-20 14:40:00,47.8,20.1,31.01,SSE,149,8.0,15.0,33,0.00,,,0.00,LWC V2.10 B1813,2013-05-20 22:40:00,
2013-05-20 14:45:00,47.7,19.3,31.01,East,90,7.0,11.0,32,0.00,,,0.00,LWC V2.10 B1813,2013-05-20 22:45:00,
2013-05-20 14:50:00,47.3,19.7,31.00,ENE,63,2.0,3.0,33,0.00,,,0.00,LWC V2.10 B1813,2013-05-20 22:50:00,
2013-05-20 14:55:00,47.6,18.5,31.00,SSE,168,5.0,9.0,31,0.00,,,0.00,LWC V2.10 B1813,2013-05-20 22:55:00,
2013-05-20 15:00:00,48.4,22.0,31.00,SE,134,4.0,10.0,35,0.00,,,0.00,LWC V2.10 B1813,2013-05-20 23:00:00,
2013-05-20 15:05:00,48.5,20.0,31.00,ESE,121,2.0,11.0,32,0.00,,,0.00,LWC V2.10 B1813,2013-05-20 23:05:00,
2013-05-20 15:10:00,48.8,19.5,31.00,East,93,9.0,11.0,31,0.00,,,0.00,LWC V2.10 B1813,2013-05-20 23:10:00,
2013-05-20 15:15:00,48.7,19.4,31.00,ESE,115,7.0,7.0,31,0.00,,,0.00,LWC V2.10 B1813,2013-05-20 23:15:00,
2013-05-20 15:20:00,48.5,19.3,31.00,South,174,5.0,10.0,31,0.00,,,0.00,LWC V2.10 B1813,2013-05-20 23:20:00,
2013-05-20 15:25:00,49.0,18.9,31.00,South,169,5.0,10.0,30,0.00,,,0.00,LWC V2.10 B1813,2013-05-20 23:25:00,
2013-05-20 15:30:00,49.2,20.6,31.00,SE,134,5.0,6.0,32,0.00,,,0.00,LWC V2.10 B1813,2013-05-20 23:30:00,
2013-05-20 15:35:00,49.1,19.8,31.00,ESE,109,7.0,8.0,31,0.00,,,0.00,LWC V2.10 B1813,2013-05-20 23:35:00,
2013-05-20 15:40:00,48.7,20.2,30.99,South,173,3.0,5.0,32,0.00,,,0.00,LWC V2.10 B1813,2013-05-20 23:40:00,
2013-05-20 15:45:00,49.1,19.0,30.99,SSE,161,5.0,8.0,30,0.00,,,0.00,LWC V2.10 B1813,2013-05-20 23:45:00,
2013-05-20 15:50:00,49.2,20.6,30.99,SSE,161,7.0,10.0,32,0.00,,,0.00,LWC V2.10 B1813,2013-05-20 23:50:00,
2013-05-20 15:55:00,49.0,18.9,30.99,SE,139,7.0,7.0,30,0.00,,,0.00,LWC V2.10 B1813,2013-05-20 23:55:00,
2013-05-20 16:00:00,49.2,19.1,30.99,South,175,6.0,8.0,30,0.00,,,0.00,LWC V2.10 B1813,2013-05-21 00:00:00,
2013-05-20 16:05:00,49.5,19.4,30.98,ESE,123,4.0,4.0,30,0.00,,,0.00,LWC V2.10 B1813,2013-05-21 00:05:00,
2013-05-20 16:10:00,49.5,18.6,30.98,ESE,121,1.0,7.0,29,0.00,,,0.00,LWC V2.10 B1813,2013-05-21 00:10:00,
2013-05-20 16:15:00,49.5,18.6,30.98,SW,217,0.0,1.0,29,0.00,,,0.00,LWC V2.10 B1813,2013-05-21 00:15:00,
2013-05-20 16:20:00,49.7,20.3,30.98,South,186,1.0,6.0,31,0.00,,,0.00,LWC V2.10 B1813,2013-05-21 00:20:00,
2013-05-20 16:25:00,49.8,20.4,30.97,SSE,165,5.0,5.0,31,0.00,,,0.00,LWC V2.10 B1813,2013-05-21 00:25:00,
2013-05-20 16:30:00,50.0,19.8,30.97,SE,132,5.0,5.0,30,0.00,,,0.00,LWC V2.10 B1813,2013-05-21 00:30:00,
2013-05-20 16:35:00,50.0,18.2,30.98,ESE,109,8.0,11.0,28,0.00,,,0.00,LWC V2.10 B1813,2013-05-21 00:35:00,
2013-05-20 16:40:00,49.5,18.6,30.97,South,172,5.0,10.0,29,0.00,,,0.00,LWC V2.10 B1813,2013-05-21 00:40:00,
2013-05-20 16:45:00,49.5,19.4,30.97,SE,124,1.0,4.0,30,0.00,,,0.00,LWC V2.10 B1813,2013-05-21 00:45:00,
2013-05-20 16:50:00,49.3,19.2,30.97,East,80,0.0,3.0,30,0.00,,,0.00,LWC V2.10 B1813,2013-05-21 00:50:00,
2013-05-20 16:55:00,49.3,20.0,30.97,SSE,165,7.0,8.0,31,0.00,,,0.00,LWC V2.10 B1813,2013-05-21 00:55:00,
2013-05-20 17:00:00,49.4,18.5,30.97,SSE,153,1.0,4.0,29,0.00,,,0.00,LWC V2.10 B1813,2013-05-21 01:00:00,
2013-05-20 17:05:00,49.3,20.0,30.97,ENE,72,1.0,5.0,31,0.00,,,0.00,LWC V2.10 B1813,2013-05-21 01:05:00,
2013-05-20 17:10:00,49.2,19.1,30.96,SE,136,5.0,13.0,30,0.00,,,0.00,LWC V2.10 B1813,2013-05-21 01:10:00,
2013-05-20 17:15:00,49.2,19.9,30.96,East,86,2.0,6.0,31,0.00,,,0.00,LWC V2.10 B1813,2013-05-21 01:15:00,
2013-05-20 17:20:00,49.0,18.9,30.96,NE,55,0.0,5.0,30,0.00,,,0.00,LWC V2.10 B1813,2013-05-21 01:20:00,
2013-05-20 17:25:00,49.0,19.7,30.95,SE,142,4.0,8.0,31,0.00,,,0.00,LWC V2.10 B1813,2013-05-21 01:25:00,
2013-05-20 17:30:00,49.4,19.3,30.95,NNE,25,0.0,5.0,30,0.00,,,0.00,LWC V2.10 B1813,2013-05-21 01:30:00,
2013-05-20 17:35:00,49.6,18.7,30.95,SE,146,6.0,10.0,29,0.00,,,0.00,LWC V2.10 B1813,2013-05-21 01:35:00,
2013-05-20 17:40:00,49.7,19.5,30.95,SSE,165,0.0,6.0,30,0.00,,,0.00,LWC V2.10 B1813,2013-05-21 01:40:00,
2013-05-20 17:45:00,49.7,17.9,30.95,ESE,107,1.0,5.0,28,0.00,,,0.00,LWC V2.10 B1813,2013-05-21 01:45:00,
2013-05-20 17:50:00,49.5,20.1,30.95,NE,49,6.0,10.0,31,0.00,,,0.00,LWC V2.10 B1813,2013-05-21 01:50:00,
2013-05-20 17:55:00,49.4,20.0,30.95,SE,125,1.0,4.0,31,0.00,,,0.00,LWC V2.10 B1813,2013-05-21 01:55:00,
2013-05-20 18:00:00,49.5,18.6,30.94,SE,144,3.0,11.0,29,0.00,,,0.00,LWC V2.10 B1813,2013-05-21 02:00:00,
2013-05-20 18:05:00,49.2,19.1,30.94,South,184,8.0,8.0,30,0.00,,,0.00,LWC V2.10 B1813,2013-05-21 02:05:00,
2013-05-20 18:10:00,49.4,18.5,30.94,South,181,3.0,7.0,29,0.00,,,0.00,LWC V2.10 B1813,2013-05-21 02:10:00,
2013-05-20 18:15:00,49.5,19.4,30.94,SSE,150,9.0,11.0,30,0.00,,,0.00,LWC V2.10 B1813,2013-05-21 02:15:00,
2013-05-20 18:20:00,49.6,19.5,30.94,SE,135,4.0,6.0,30,0.00,,,0.00,LWC V2.10 B1813,2013-05-21 02:20:00,
2013-05-20 18:25:00,49.6,18.7,30.94,SE,128,4.0,5.0,29,0.00,,,0.00,LWC V2.10 B1813,2013-05-21 02:25:00,
2013-05-20 18:30:00,49.5,17.8,30.94,South,171,4.0,6.0,28,0.00,,,0.00,LWC V2.10 B1813,2013-05-21 02:30:00,
2013-05-20 18:35:00,49.6,17.9,30.93,SSE,163,0.0,7.0,28,0.00,,,0.00,LWC V2.10 B1813,2013-05-21 02:35:00,
2013-05-20 18:40:00,49.7,17.1,30.93,ESE,108,4.0,10.0,27,0.00,,,0.00,LWC V2.10 B1813,2013-05-21 02:40:00,
2013-05-20 18:45:00,49.5,18.6,30.93,ESE,110,9.0,12.0,29,0.00,,,0.00,LWC V2.10 B1813,2013-05-21 02:45:00,
2013-05-20 18:50:00,49.4,18.5,30.93,SE,141,5.0,7.0,29,0.00,,,0.00,LWC V2.10 B1813,2013-05-21 02:50:00,
2013-05-20 18:55:00,49.2,17.5,30.93,ESE,110,3.0,7.0,28,0.00,,,0.00,LWC V2.10 B1813,2013-05-21 02:55:00,
2013-05-20 19:00:00,49.2,18.3,30.93,SE,136,1.0,8.0,29,0.00,,,0.00,LWC V2.10 B1813,2013-05-21 03:00:00,
2013-05-20 19:05:00,49.2,18.3,30.92,ESE,110,5.0,12.0,29,0.00,,,0.00,LWC V2.10 B1813,2013-05-21 03:05:00,
2013-05-20 19:10:00,49.3,19.2,30.92,SE,145,5.0,7.0,30,0.00,,,0.00,LWC V2.10 B1813,2013-05-21 03:10:00,
2013-05-20 19:15:00,49.2,18.3,30.92,SSE,156,4.0,6.0,29,0.00,,,0.00,LWC V2.10 B1813,2013-05-21 03:15:00,
2013-05-20 19:20:00,49.1,16.6,30.92,SE,138,3.0,6.0,27,0.00,,,0.00,LWC V2.10 B1813,2013-05-21 03:20:00,
2013-05-20 19:25:00,49.0,19.7,30.92,SSW,210,5.0,7.0,31,0.00,,,0.00,LWC V2.10 B1813,2013-05-21 03:25:00,
2013-05-20 19:30:00,49.0,18.9,30.92,SSW,205,0.0,2.0,30,0.00,,,0.00,LWC V2.10 B1813,2013-05-21 03:30:00,
2013-05-20 19:35:00,48.9,18.1,30.92,SE,136,3.0,10.0,29,0.00,,,0.00,LWC V2.10 B1813,2013-05-21 03:35:00,
2013-05-20 19:40:00,49.0,18.1,30.92,SSE,152,2.0,4.0,29,0.00,,,0.00,LWC V2.10 B1813,2013-05-21 03:40:00,
2013-05-20 19:45:00,48.9,18.1,30.92,ESE,113,4.0,5.0,29,0.00,,,0.00,LWC V2.10 B1813,2013-05-21 03:45:00,
2013-05-20 19:50:00,48.9,16.4,30.92,SSE,151,2.0,4.0,27,0.00,,,0.00,LWC V2.10 B1813,2013-05-21 03:50:00,
2013-05-20 19:55:00,48.8,17.2,30.91,ENE,75,3.0,5.0,28,0.00,,,0.00,LWC V2.10 B1813,2013-05-21 03:55:00,
2013-05-20 20:00:00,48.7,17.9,30.91,SE,131,2.0,2.0,29,0.00,,,0.00,LWC V2.10 B1813,2013-05-21 04:00:00,
2013-05-20 20:01:00,48.6,17.0,30.91,SE,132,0.0,2.0,28,0.00,,,0.00,LWC V2.10 B1813,2013-05-21 04:01:00,
2013-05-20 20:06:00,48.5,16.9,30.91,SE,132,0.0,1.0,28,0.00,,,0.00,LWC V2.10 B1813,2013-05-21 04:06:00,
2013-05-20 20:11:00,48.6,17.8,30.91,SE,146,2.0,6.0,29,0.00,,,0.00,LWC V2.10 B1813,2013-05-21 04:11:00,
2013-05-20 20:16:00,48.6,18.6,30.91,SE,128,2.0,3.0,30,0.00,,,0.00,LWC V2.10 B1813,2013-05-21 04:16:00,
2013-05-20 20:21:00,48.8,17.2,30.91,East,98,2.0,5.0,28,0.00,,,0.00,LWC V2.10 B1813,2013-05-21 04:21:00,
2013-05-20 20:26:00,48.8,17.2,30.91,East,98,0.0,1.0,28,0.00,,,0.00,LWC V2.10 B1813,2013-05-21 04:26:00,
2013-05-20 20:31:00,48.7,17.1,30.91,East,98,0.0,3.0,28,0.00,,,0.00,LWC V2.10 B1813,2013-05-21 04:31:00,
2013-05-20 20:36:00,48.7,17.1,30.91,ESE,107,1.0,2.0,28,0.00,,,0.00,LWC V2.10 B1813,2013-05-21 04:36:00,
2013-05-20 20:41:00,48.8,18.0,30.91,ESE,117,8.0,8.0,29,0.00,,,0.00,LWC V2.10 B1813,2013-05-21 04:41:00,
2013-05-20 20:46:00,48.7,17.1,30.90,SE,130,0.0,4.0,28,0.00,,,0.00,LWC V2.10 B1813,2013-05-21 04:46:00,
2013-05-20 20:51:00,48.7,19.4,30.90,SE,131,0.0,2.0,31,0.00,,,0.00,LWC V2.10 B1813,2013-05-21 04:51:00,
2013-05-20 20:56:00,48.6,18.6,30.90,SE,130,0.0,0.0,30,0.00,,,0.00,LWC V2.10 B1813,2013-05-21 04:56:00,
2013-05-20 21:01:00,48.6,17.8,30.90,ESE,107,1.0,4.0,29,0.00,,,0.00,LWC V2.10 B1813,2013-05-21 05:01:00,
2013-05-20 21:06:00,48.7,17.9,30.90,ESE,117,0.0,4.0,29,0.00,,,0.00,LWC V2.10 B1813,2013-05-21 05:06:00,
2013-05-20 21:11:00,48.6,17.0,30.90,ESE,117,0.0,2.0,28,0.00,,,0.00,LWC V2.10 B1813,2013-05-21 05:11:00,
2013-05-20 21:16:00,48.5,16.9,30.90,ESE,117,0.0,2.0,28,0.00,,,0.00,LWC V2.10 B1813,2013-05-21 05:16:00,
2013-05-20 21:21:00,48.3,16.7,30.90,ESE,110,1.0,3.0,28,0.00,,,0.00,LWC V2.10 B1813,2013-05-21 05:21:00,
2013-05-20 21:26:00,48.2,17.5,30.90,ESE,111,0.0,0.0,29,0.00,,,0.00,LWC V2.10 B1813,2013-05-21 05:26:00,
2013-05-20 21:31:00,48.0,17.3,30.90,ESE,111,0.0,0.0,29,0.00,,,0.00,LWC V2.10 B1813,2013-05-21 05:31:00,
2013-05-20 21:36:00,47.8,17.1,30.90,ESE,111,1.0,1.0,29,0.00,,,0.00,LWC V2.10 B1813,2013-05-21 05:36:00,
2013-05-20 21:41:00,47.7,17.0,30.90,ESE,107,0.0,2.0,29,0.00,,,0.00,LWC V2.10 B1813,2013-05-21 05:41:00,
2013-05-20 21:46:00,47.6,16.1,30.90,ESE,109,2.0,2.0,28,0.00,,,0.00,LWC V2.10 B1813,2013-05-21 05:46:00,
2013-05-20 21:51:00,47.5,16.0,30.90,East,98,0.0,2.0,28,0.00,,,0.00,LWC V2.10 B1813,2013-05-21 05:51:00,
2013-05-20 21:56:00,47.3,16.7,30.90,East,92,0.0,3.0,29,0.00,,,0.00,LWC V2.10 B1813,2013-05-21 05:56:00,
2013-05-20 22:01:00,47.3,18.2,30.90,ENE,76,2.0,5.0,31,0.00,,,0.00,LWC V2.10 B1813,2013-05-21 06:01:00,
2013-05-20 22:06:00,47.2,16.6,30.89,ENE,76,1.0,1.0,29,0.00,,,0.00,LWC V2.10 B1813,2013-05-21 06:06:00,
2013-05-20 22:11:00,47.0,16.4,30.89,ENE,76,0.0,2.0,29,0.00,,,0.00,LWC V2.10 B1813,2013-05-21 06:11:00,
2013-05-20 22:16:00,46.9,15.5,30.89,ENE,76,2.0,3.0,28,0.00,,,0.00,LWC V2.10 B1813,2013-05-21 06:16:00,
2013-05-20 22:21:00,46.7,15.3,30.89,ENE,76,3.0,3.0,28,0.00,,,0.00,LWC V2.10 B1813,2013-05-21 06:21:00,
2013-05-20 22:26:00,46.4,15.9,30.89,East,79,2.0,3.0,29,0.00,,,0.00,LWC V2.10 B1813,2013-05-21 06:26:00,
2013-05-20 22:31:00,46.3,15.8,30.89,ENE,78,0.0,1.0,29,0.00,,,0.00,LWC V2.10 B1813,2013-05-21 06:31:00,
2013-05-20 22:36:00,46.3,15.8,30.89,East,79,1.0,3.0,29,0.00,,,0.00,LWC V2.10 B1813,2013-05-21 06:36:00,
2013-05-20 22:41:00,46.4,15.9,30.89,East,79,1.0,2.0,29,0.00,,,0.00,LWC V2.10 B1813,2013-05-21 06:41:00,
2013-05-20 22:46:00,46.3,15.8,30.89,ENE,69,2.0,4.0,29,0.00,,,0.00,LWC V2.10 B1813,2013-05-21 06:46:00,
2013-05-20 22:51:00,46.2,15.7,30.89,ENE,71,3.0,4.0,29,0.00,,,0.00,LWC V2.10 B1813,2013-05-21 06:51:00,
2013-05-20 22:56:00,46.1,15.6,30.89,ENE,64,1.0,4.0,29,0.00,,,0.00,LWC V2.10 B1813,2013-05-21 06:56:00,
2013-05-20 23:01:00,46.0,16.3,30.89,ENE,71,3.0,3.0,30,0.00,,,0.00,LWC V2.10 B1813,2013-05-21 07:01:00,
2013-05-20 23:06:00,45.9,17.0,30.89,East,83,2.0,3.0,31,0.00,,,0.00,LWC V2.10 B1813,2013-05-21 07:06:00,
2013-05-20 23:11:00,45.9,16.2,30.89,ENE,69,1.0,3.0,30,0.00,,,0.00,LWC V2.10 B1813,2013-05-21 07:11:00,
2013-05-20 23:16:00,45.8,16.1,30.89,ENE,63,1.0,3.0,30,0.00,,,0.00,LWC V2.10 B1813,2013-05-21 07:16:00,
2013-05-20 23:21:00,45.8,16.1,30.89,ENE,78,1.0,4.0,30,0.00,,,0.00,LWC V2.10 B1813,2013-05-21 07:21:00,
2013-05-20 23:26:00,45.9,17.0,30.89,East,84,5.0,6.0,31,0.00,,,0.00,LWC V2.10 B1813,2013-05-21 07:26:00,
2013-05-20 23:31:00,45.8,16.1,30.89,ENE,74,1.0,3.0,30,0.00,,,0.00,LWC V2.10 B1813,2013-05-21 07:31:00,
2013-05-20 23:36:00,45.6,16.7,30.89,ENE,74,1.0,2.0,31,0.00,,,0.00,LWC V2.10 B1813,2013-05-21 07:36:00,
2013-05-20 23:41:00,45.2,17.8,30.89,ENE,65,1.0,4.0,33,0.00,,,0.00,LWC V2.10 B1813,2013-05-21 07:41:00,
2013-05-20 23:46:00,44.8,16.8,30.89,ENE,69,2.0,3.0,32,0.00,,,0.00,LWC V2.10 B1813,2013-05-21 07:46:00,
2013-05-20 23:51:00,44.5,16.5,30.89,ENE,76,3.0,4.0,32,0.00,,,0.00,LWC V2.10 B1813,2013-05-21 07:51:00,
2013-05-20 23:56:00,44.3,16.3,30.89,East,80,3.0,3.0,32,0.00,,,0.00,LWC V2.10 B1813,2013-05-21 07:56:00,